GFSSE_sfc_30mbdewp_132.txt.gz
Dewpoint
66 69 71 72 71 70 70 70 71 71 70 72 72 72 72 72 72 72 73 73 72 71 69 70 69 68 68 69 69 69 69 70 70 71 70 70 69 69 69 70 69 69 69
64 70 71 71 71 71 70 69 70 71 71 71 72 72 72 72 72 73 73 72 72 71 69 70 69 68 68 69 69 70 69 70 70 70 70 69 68 69 69 69 69 69 69
67 70 71 71 71 71 70 70 70 71 72 70 70 71 72 72 72 72 72 72 72 70 69 69 69 68 69 68 69 69 69 70 70 70 70 69 68 69 69 69 69 69 68
67 69 70 71 71 70 70 70 70 71 71 71 70 70 71 71 72 72 71 71 71 71 69 69 69 69 69 68 69 69 69 69 69 69 68 69 69 69 69 68 69 69 68
68 69 70 71 71 70 70 70 70 71 70 71 71 71 71 71 71 71 71 71 71 71 70 69 69 69 68 68 68 69 69 69 69 68 67 68 68 69 68 68 68 68 69
68 69 69 70 71 71 70 70 71 70 70 70 71 71 71 72 72 72 71 72 72 72 71 70 71 69 68 68 68 68 68 68 67 66 67 68 68 69 68 68 68 68 68
67 68 69 70 70 71 71 71 70 70 70 70 70 71 71 71 71 71 71 71 72 72 71 71 71 68 68 68 68 68 68 67 66 66 66 68 68 68 68 68 68 68 68
68 68 69 69 70 71 71 71 70 70 70 70 70 70 71 71 70 70 70 71 71 71 71 71 69 68 68 68 68 68 67 65 66 66 66 66 67 68 68 68 67 66 66
68 68 68 68 69 70 70 71 70 70 70 70 70 70 70 70 70 69 70 71 70 70 71 70 69 68 68 68 67 67 66 63 64 65 65 66 67 68 68 67 67 67 68
61 67 67 67 68 68 69 69 70 70 70 70 70 70 70 70 69 69 69 70 70 70 70 70 68 67 68 68 67 67 66 64 59 62 64 65 66 67 67 67 67 67 68
58 60 67 67 67 67 68 68 69 70 69 70 70 70 69 69 69 69 69 70 70 69 69 69 68 67 67 67 67 67 66 65 60 62 62 65 66 67 67 67 66 67 68
48 50 53 56 59 65 67 67 67 68 68 68 69 69 69 69 69 69 69 69 69 69 69 69 68 67 67 67 67 67 66 65 64 64 63 64 66 67 67 67 66 65 67
45 45 46 48 50 52 54 59 64 67 68 68 67 68 69 69 68 68 68 68 68 69 69 69 68 67 66 66 66 66 65 65 64 64 64 64 65 66 67 67 66 67 66
39 41 44 43 44 47 50 52 54 56 60 65 66 66 67 68 67 67 67 68 68 68 68 68 67 66 66 66 65 65 65 64 64 64 64 63 65 67 67 67 67 67 67
34 35 37 37 37 41 44 47 49 50 55 58 62 61 63 67 67 67 67 67 67 66 67 66 66 66 65 65 65 64 64 64 64 63 63 63 64 66 67 67 66 66 66
31 32 32 34 33 34 37 41 44 47 50 52 55 57 58 60 61 66 66 66 66 66 67 66 66 65 64 64 64 65 64 64 64 63 63 63 63 64 66 66 67 66 66
29 29 30 31 31 31 32 36 39 43 46 47 47 51 54 57 57 58 61 65 65 67 67 66 66 65 64 64 64 64 64 64 63 63 63 63 63 62 64 65 67 66 67
27 27 29 29 29 30 31 33 34 38 43 42 42 49 49 48 52 57 57 61 60 61 66 66 65 64 64 64 63 64 64 64 63 63 62 63 63 63 63 64 66 67 67
27 27 27 28 28 29 30 31 31 35 38 34 41 41 42 44 52 51 56 58 62 59 55 64 65 64 63 63 63 63 63 63 63 63 62 62 63 63 63 63 63 65 66
26 27 27 28 28 28 29 29 30 31 31 32 36 35 39 46 46 50 51 54 56 57 56 57 61 63 63 63 62 62 63 63 63 63 63 62 63 63 63 63 63 64 65
26 27 28 28 29 28 28 28 28 28 29 31 32 35 38 36 44 44 44 46 48 51 54 59 58 60 60 62 60 61 62 62 62 62 62 62 62 62 63 63 63 64 64
27 28 28 28 29 28 29 29 28 28 29 29 31 32 32 36 35 36 39 44 47 48 52 55 59 57 56 58 60 58 56 59 60 62 62 62 62 62 62 62 63 63 64
27 28 28 27 28 28 29 28 28 29 29 29 29 29 30 31 33 36 39 42 43 46 48 52 57 58 55 57 58 58 54 53 58 61 61 62 62 62 62 62 62 63 63
27 27 27 27 28 28 28 28 27 27 27 28 30 30 31 32 33 34 36 37 39 41 44 47 51 59 59 55 58 62 61 59 53 54 60 61 62 61 62 62 62 62 62
26 26 27 28 27 26 26 27 27 27 27 28 29 30 31 32 33 34 36 37 39 42 44 46 50 52 58 57 56 56 57 57 59 56 52 58 61 61 62 62 62 62 61
25 25 26 28 26 27 27 27 26 27 27 27 28 29 33 34 35 35 36 37 37 39 41 45 50 53 55 57 56 55 55 55 54 56 54 54 57 59 61 62 62 62 62

GFSSE_sfc_30mbdewp_135.txt.gz
Dewpoint
64 68 71 71 70 70 70 69 70 71 72 72 71 71 71 71 71 72 72 72 72 72 71 70 70 68 69 69 70 69 70 71 71 71 70 70 70 69 70 70 69 65 69
64 69 71 72 71 70 70 69 70 71 72 73 72 72 72 71 71 72 72 72 72 72 69 70 69 68 69 69 70 69 70 70 70 70 70 69 69 69 69 69 66 68 69
67 69 70 71 71 70 70 70 70 70 71 72 72 72 72 72 72 72 72 72 71 69 69 70 69 68 69 69 69 69 69 70 70 70 69 67 67 69 69 69 69 69 69
68 69 70 71 71 71 70 70 70 71 71 71 72 72 72 72 72 72 72 72 71 70 70 69 69 68 69 68 69 69 69 69 70 70 67 66 66 69 69 69 69 68 69
68 69 70 71 70 70 70 70 70 71 70 70 71 72 72 72 72 72 72 71 71 71 70 69 69 69 68 68 69 69 69 69 69 68 66 67 67 68 68 69 69 69 68
68 69 69 70 71 70 70 70 70 71 70 70 70 71 71 72 72 72 71 71 71 71 70 70 70 69 68 68 68 69 69 69 68 66 66 67 66 67 68 69 67 68 67
68 69 69 70 70 71 71 70 70 71 70 70 70 71 71 71 72 71 70 71 72 72 71 71 71 68 68 68 68 68 68 68 66 66 66 67 66 68 68 68 68 68 68
68 68 69 69 70 70 71 71 70 70 70 70 70 70 71 71 71 71 71 71 72 72 71 71 70 68 68 68 68 68 67 67 66 65 65 66 67 68 68 68 67 67 67
67 69 69 69 69 69 69 70 70 70 69 70 69 70 70 70 70 70 70 71 70 71 71 71 70 69 68 68 67 67 67 66 66 66 65 65 67 69 67 67 67 67 67
55 55 59 65 69 69 69 68 69 69 69 69 69 69 69 69 69 69 70 70 69 70 70 70 69 68 68 68 67 67 67 64 65 66 65 64 66 68 67 67 66 67 68
48 48 50 52 53 59 65 68 68 68 68 69 69 69 69 69 69 68 68 69 70 69 70 70 69 67 67 67 67 66 66 65 63 63 64 66 66 67 67 67 66 67 66
43 43 43 46 49 51 53 57 61 67 69 68 67 68 69 69 69 69 68 68 69 69 69 69 69 67 67 65 66 67 65 65 65 62 61 64 66 67 67 67 67 67 66
37 37 39 38 41 45 47 50 51 55 60 65 67 67 67 68 68 68 68 68 68 68 68 68 68 68 66 66 65 65 65 66 64 64 61 63 65 67 67 68 67 66 66
33 33 35 36 35 37 42 42 45 47 52 57 60 62 66 66 66 67 67 67 68 67 68 68 68 67 67 67 66 65 65 65 64 64 63 64 64 66 67 67 67 67 66
29 31 32 33 33 33 35 38 40 43 47 50 52 55 58 60 64 66 67 67 67 67 67 67 67 67 67 67 66 66 65 64 64 64 65 64 63 65 67 67 67 66 66
28 29 31 31 32 32 33 36 37 40 44 45 44 50 54 55 56 58 61 66 66 67 67 66 66 66 66 66 65 65 65 64 64 64 63 63 63 64 66 67 68 67 67
27 28 30 30 31 32 32 34 34 36 41 42 39 48 44 45 46 53 57 59 63 62 62 63 65 66 66 65 65 65 65 65 64 64 63 63 63 63 64 65 66 67 67
27 28 29 30 31 31 31 32 32 33 39 36 37 43 39 42 48 51 52 54 58 61 57 56 55 57 63 64 64 64 64 65 64 64 63 62 62 63 63 63 65 65 66
27 28 29 30 31 31 31 31 32 33 34 32 37 35 37 44 43 44 49 52 53 55 58 55 53 51 53 61 63 64 65 64 64 64 63 62 62 62 63 63 63 64 65
27 29 29 29 30 31 30 30 30 31 31 32 32 32 38 37 36 40 43 44 45 47 53 57 55 52 50 56 62 63 64 64 64 64 63 63 62 62 62 63 63 63 64
28 28 28 28 30 29 29 29 29 29 30 30 31 32 33 34 36 35 37 39 42 43 46 51 56 57 56 58 59 61 63 63 63 63 63 63 61 62 62 63 64 63 63
27 28 27 28 29 28 28 28 29 29 29 30 31 32 33 33 34 34 35 37 39 42 43 45 51 57 58 59 59 57 55 59 62 62 62 63 63 61 62 62 63 63 63
26 27 26 28 28 28 28 27 28 28 29 29 30 31 32 33 34 35 35 36 38 40 41 43 47 51 55 58 58 54 50 49 54 61 61 62 62 62 61 62 63 63 63
26 26 26 28 27 26 27 27 27 27 26 28 28 30 31 32 34 35 36 36 37 38 39 40 42 45 50 55 58 58 55 56 53 50 60 61 62 62 62 61 62 63 63
25 25 25 27 26 27 27 27 27 26 27 28 29 29 30 32 33 34 35 37 38 39 39 40 42 44 47 50 56 56 57 56 56 55 53 57 61 62 61 63 62 63 63
25 25 25 26 25 26 26 25 26 26 27 28 29 29 30 32 34 35 36 37 38 39 38 40 41 41 43 47 50 57 55 56 54 54 52 54 55 59 62 63 63 63 63

GFSSE_sfc_30mbdewp_138.txt.gz
Dewpoint
62 68 71 70 70 69 70 70 71 72 72 72 71 72 72 72 71 72 72 72 72 72 70 70 69 69 69 70 70 70 71 71 71 71 71 70 69 69 69 69 67 65 69
64 68 71 71 70 69 69 69 70 72 72 72 71 72 72 72 71 72 72 72 72 72 71 70 69 68 69 70 69 69 70 71 70 70 71 70 69 69 69 68 68 66 69
66 68 70 71 70 70 69 69 69 71 72 73 72 72 72 72 72 72 72 72 72 72 70 70 69 68 69 69 69 69 70 70 70 70 68 66 65 69 69 68 69 69 69
65 67 68 71 71 70 69 69 69 70 71 72 72 72 72 72 72 72 72 72 72 70 70 70 69 68 69 68 69 69 69 70 70 69 65 64 65 69 69 69 69 68 68
66 66 69 70 70 70 70 70 70 70 70 70 71 72 72 72 72 72 71 71 71 71 70 69 69 69 68 68 69 69 69 69 69 68 61 63 64 68 69 69 68 69 68
67 67 69 70 71 71 70 70 70 70 70 70 70 71 72 70 72 72 71 71 72 71 71 70 70 69 68 68 68 69 69 69 69 62 61 64 63 68 68 69 67 67 67
68 68 68 69 70 71 71 71 70 70 70 70 70 70 71 71 70 70 71 71 71 71 71 71 71 69 68 68 68 68 68 68 64 62 62 63 63 67 68 68 67 67 67
63 64 66 69 69 69 70 70 70 70 70 70 70 70 70 70 70 69 70 70 71 71 71 71 71 69 68 68 68 68 68 67 64 62 61 62 66 68 68 67 66 67 67
54 55 55 56 58 64 68 68 69 69 69 69 69 69 70 70 69 69 69 69 69 70 70 70 70 69 68 68 68 68 67 66 63 61 61 60 67 68 67 67 66 67 67
52 49 49 51 53 56 60 63 68 68 68 68 69 69 69 69 69 69 69 69 69 69 70 70 70 69 68 68 67 67 67 67 65 61 61 60 66 68 67 68 67 67 67
48 47 46 46 48 52 55 57 61 64 68 68 68 69 69 67 66 66 66 67 68 69 69 69 69 69 68 67 67 67 67 65 62 61 60 65 66 67 67 68 67 67 67
42 42 43 43 44 46 47 52 54 58 62 65 65 67 68 68 68 67 66 67 67 68 68 68 69 68 67 63 64 67 65 62 61 59 58 64 65 67 67 68 67 67 66
38 38 39 40 41 42 43 45 47 50 54 59 58 60 63 67 67 68 67 67 67 67 65 66 66 66 64 62 60 64 62 62 60 59 58 63 65 67 67 68 67 67 66
34 35 36 37 38 39 40 40 42 43 47 50 52 55 58 61 64 66 66 66 66 67 67 66 66 65 64 63 62 62 63 62 61 59 59 62 63 66 67 67 68 68 67
31 33 35 35 37 37 37 40 40 41 43 47 45 50 54 56 56 57 62 66 66 66 67 66 66 66 65 64 64 64 63 63 62 60 59 63 63 64 67 67 67 67 67
30 31 35 34 36 37 37 39 39 38 40 43 41 44 47 47 49 51 56 62 64 66 66 66 65 66 66 65 64 64 64 62 62 62 61 61 64 64 64 67 67 67 67
29 31 33 33 35 37 36 36 36 35 38 40 38 42 44 44 45 48 51 56 59 62 64 62 59 60 64 65 64 64 65 63 62 62 62 61 61 63 63 64 67 67 67
29 31 32 33 34 36 35 35 35 35 37 36 35 39 39 43 46 46 44 47 50 56 58 60 57 57 57 60 58 59 64 64 62 62 63 62 59 57 62 63 64 66 66
29 31 31 33 34 35 34 34 34 35 35 34 35 35 37 41 42 41 40 44 47 47 49 56 57 55 53 55 56 58 59 64 65 63 62 62 62 60 57 61 62 64 65
29 31 31 31 34 33 32 32 32 32 33 33 34 34 36 37 38 39 40 40 43 42 43 46 55 56 56 53 55 57 57 57 65 64 63 62 62 63 61 57 62 62 63
30 30 30 30 33 31 30 30 30 30 31 32 33 34 36 36 37 38 37 38 40 41 41 43 47 52 56 56 54 55 58 61 63 64 64 63 62 62 63 62 59 59 61
29 30 29 29 31 30 29 30 30 30 30 31 33 34 34 35 36 36 37 37 38 39 41 43 45 44 48 53 54 57 54 55 60 62 63 62 61 61 62 62 60 59 59
28 29 28 29 29 29 30 28 29 29 29 29 30 31 32 33 34 35 37 38 38 39 39 41 43 44 44 49 57 52 50 49 49 55 61 61 61 62 62 61 61 61 60
28 28 28 29 29 28 29 28 28 27 27 27 28 29 31 32 33 34 35 36 37 39 39 40 41 42 42 44 50 56 57 53 47 48 55 60 61 61 62 61 61 61 60
27 27 28 29 28 28 28 28 27 26 26 26 27 28 29 30 31 32 34 35 35 38 39 39 41 42 43 43 43 49 57 57 56 55 51 54 60 62 62 62 62 61 62
27 28 28 28 27 28 27 27 26 25 25 26 26 27 28 29 31 32 34 36 36 37 38 40 40 41 42 42 42 47 52 53 54 54 53 53 55 58 61 62 63 63 62

GFSSE_sfc_30mbdewp_141.txt.gz
Dewpoint
62 67 70 69 70 70 70 71 71 71 71 71 71 72 72 72 72 72 72 72 73 72 70 69 69 69 69 70 70 70 71 71 70 71 71 70 69 70 69 69 68 65 70
64 68 70 69 69 70 70 70 71 72 72 72 71 72 72 72 72 72 72 72 72 72 70 70 69 69 69 70 69 70 71 71 70 71 71 70 69 69 69 68 68 67 69
66 68 69 70 69 69 69 70 71 72 72 72 71 71 72 72 72 72 72 72 72 72 71 70 69 68 69 70 69 70 70 70 70 71 70 65 65 69 68 68 68 68 70
63 66 69 71 71 70 69 69 70 70 72 72 72 72 72 72 72 72 72 72 72 72 71 70 69 68 69 69 69 69 70 70 70 69 66 62 65 69 68 69 69 69 69
63 68 70 71 71 71 70 70 70 70 70 71 72 72 72 72 72 72 72 72 72 72 70 70 69 69 69 68 69 69 69 69 69 68 63 62 64 68 69 69 68 69 68
66 68 69 70 70 71 71 71 71 70 70 70 70 72 72 71 71 70 71 71 71 71 71 70 70 70 68 68 68 69 69 69 69 64 65 64 64 67 69 69 67 67 67
64 63 64 63 65 70 70 70 71 71 71 70 70 70 71 70 70 70 70 71 71 72 71 71 71 70 68 68 68 69 69 69 65 61 61 64 62 66 68 69 69 67 67
59 58 60 60 61 63 65 66 69 69 69 70 70 70 70 69 69 69 70 70 71 71 71 70 70 70 68 67 68 68 68 68 64 63 57 63 66 66 68 69 68 67 67
58 56 55 56 57 59 61 61 65 68 68 69 69 70 69 70 69 68 69 70 70 69 70 70 70 70 68 67 67 68 68 67 64 59 57 62 66 67 68 69 67 67 67
53 54 53 53 53 55 57 59 61 64 65 68 68 69 69 69 69 69 69 69 69 69 69 70 70 69 69 68 67 67 67 67 64 63 59 64 67 67 67 68 68 66 67
47 48 49 49 50 51 51 55 58 61 63 65 65 65 68 67 66 66 66 66 67 68 69 69 69 69 69 68 67 67 67 65 62 60 60 65 66 67 67 68 68 66 67
42 43 45 46 47 47 47 50 51 53 56 61 61 61 64 67 68 66 66 66 66 67 68 68 68 68 68 64 65 67 65 63 61 62 59 65 66 67 68 68 68 67 67
39 40 41 43 44 45 44 45 47 47 50 53 55 58 59 62 65 68 68 68 67 67 66 65 66 67 64 62 59 64 63 62 62 60 61 64 65 67 67 68 68 67 66
36 38 39 40 42 42 43 42 43 43 44 48 49 50 55 58 59 61 63 66 67 67 66 65 65 66 65 63 62 60 62 63 62 61 60 64 64 66 67 68 68 68 66
33 37 39 39 41 41 41 43 43 42 41 44 45 45 50 49 50 54 57 60 63 66 66 66 66 66 65 64 64 64 63 62 62 62 61 62 63 65 67 68 68 67 67
33 35 38 37 40 41 40 41 42 40 40 41 42 42 47 47 46 47 49 52 56 59 63 65 64 65 65 65 65 65 64 63 62 61 60 62 62 63 64 68 68 68 68
32 34 36 35 38 40 39 39 39 38 40 39 40 40 43 44 45 47 48 47 48 53 59 61 63 62 60 61 61 63 64 62 63 64 63 62 63 63 63 64 67 68 68
32 33 35 36 37 39 38 38 37 37 39 38 37 38 40 41 43 45 42 42 44 51 51 54 59 56 57 57 58 60 61 61 59 63 64 64 63 61 63 63 64 66 67
32 33 33 35 37 37 36 36 35 36 36 36 36 36 37 40 41 42 41 41 44 45 46 46 49 56 55 54 52 53 59 59 60 60 64 64 64 63 61 62 63 63 65
32 33 33 33 36 35 33 33 33 33 34 34 34 35 37 38 39 40 40 41 42 41 41 42 44 46 52 52 51 48 53 57 59 62 62 60 64 64 63 62 63 62 63
32 33 32 32 34 33 31 32 31 31 32 33 34 35 36 37 38 39 38 39 40 40 41 42 43 44 46 50 52 51 52 54 58 59 61 61 62 63 63 63 62 63 62
32 32 31 31 32 32 31 32 31 31 31 32 33 34 35 35 36 36 37 38 39 40 40 41 43 44 45 46 47 49 47 48 54 56 58 62 63 63 63 64 63 61 61
31 31 31 31 31 31 32 30 30 30 30 30 30 31 31 33 33 34 35 35 37 39 40 40 41 42 43 45 47 47 45 45 45 55 58 59 61 63 62 62 64 63 61
30 31 32 32 31 30 31 30 30 28 27 28 28 29 30 30 31 33 34 35 36 37 37 39 41 42 42 42 44 46 51 53 51 49 52 58 60 61 62 62 62 63 62
30 31 32 32 31 31 31 30 29 28 27 27 27 28 28 29 30 31 33 35 36 37 38 38 39 40 42 43 42 42 45 48 52 53 52 52 57 59 60 62 62 62 63
30 31 32 31 30 30 30 30 28 27 27 26 26 27 28 29 30 30 31 32 33 35 36 37 38 39 41 41 42 44 44 44 47 52 52 52 53 57 60 60 62 63 63

GFSSE_sfc_30mbdewp_144.txt.gz
Dewpoint
65 68 70 70 70 70 71 71 71 71 71 70 71 71 71 71 72 71 72 72 72 71 70 69 69 69 69 70 70 70 70 70 70 71 71 70 69 69 70 69 68 68 70
66 68 70 70 70 70 70 71 72 72 72 71 71 71 71 71 72 72 72 72 72 71 70 70 69 69 70 70 69 70 70 70 70 71 71 70 69 69 68 68 66 69 70
67 67 69 71 70 70 70 70 71 72 72 72 71 71 71 71 72 72 72 72 72 72 71 70 70 69 70 70 69 69 70 70 70 71 70 68 68 69 69 69 68 69 69
69 70 70 71 71 71 71 70 70 70 71 72 72 71 71 72 72 72 72 72 72 72 71 71 70 69 69 69 69 69 70 70 70 70 69 67 66 69 68 69 69 69 69
68 67 67 69 71 71 71 71 71 71 70 70 72 72 72 72 72 71 71 71 72 72 72 71 70 70 69 67 69 69 69 69 69 69 67 67 66 68 68 69 69 69 68
65 65 63 64 68 69 70 71 71 71 71 70 70 71 72 71 70 70 70 71 72 72 71 70 71 70 69 67 68 69 69 69 69 67 65 61 64 69 68 68 68 68 68
60 61 61 61 63 64 66 68 69 69 69 70 70 70 70 70 70 69 69 70 70 71 72 71 71 71 69 67 67 68 68 68 68 66 65 66 66 68 68 67 68 68 68
59 58 58 58 60 62 61 63 66 67 68 69 69 70 69 69 69 69 69 69 69 70 70 71 71 71 69 67 67 68 68 68 66 65 64 65 67 67 68 68 68 67 67
56 56 56 56 56 57 60 58 62 64 66 66 68 68 69 69 68 69 68 69 69 70 69 70 70 70 70 68 67 67 67 67 67 65 64 65 66 66 68 68 68 68 68
51 52 52 52 53 53 55 56 60 63 65 64 64 64 66 68 68 67 68 68 68 69 69 69 69 69 69 68 67 67 67 67 66 65 64 64 65 66 66 67 67 68 67
47 49 50 50 50 50 50 52 54 56 58 61 61 62 63 66 68 68 67 66 66 67 67 67 67 68 69 69 67 67 67 67 65 64 63 64 66 66 67 67 67 67 67
43 44 47 48 49 48 45 48 50 51 52 57 57 58 60 62 65 65 67 66 66 67 67 67 67 67 69 68 68 67 67 66 65 63 62 64 65 66 66 67 68 67 67
40 42 43 46 48 48 47 47 47 46 48 51 52 54 55 56 60 60 62 66 67 66 67 66 67 67 67 67 65 66 66 65 64 63 61 66 65 64 66 68 68 67 67
37 40 42 44 46 47 47 46 46 45 46 46 48 51 51 52 52 52 54 58 62 67 66 64 66 65 64 65 65 64 66 65 63 62 63 63 63 64 65 67 68 68 67
35 40 41 41 44 44 44 46 46 46 45 46 47 48 47 51 49 50 51 52 54 59 64 66 66 65 65 64 65 64 64 63 64 62 65 64 65 65 64 66 67 68 68
35 37 39 39 43 43 43 44 44 43 44 44 45 46 46 48 48 47 49 51 50 51 54 61 62 64 63 63 63 65 64 65 64 64 65 64 63 64 63 64 68 68 68
34 36 38 38 42 42 42 42 42 42 42 43 43 43 43 45 45 46 46 46 46 48 50 53 56 62 63 62 63 62 64 64 64 61 60 61 64 63 64 64 66 68 68
34 35 37 38 40 40 40 40 40 40 41 41 41 41 43 44 43 44 44 44 45 47 48 49 50 50 58 58 58 60 62 63 63 62 60 57 57 63 64 64 65 67 67
35 35 35 37 39 39 38 38 37 38 38 38 39 39 41 41 43 43 42 43 45 44 45 46 46 47 48 54 57 55 59 61 61 60 59 57 58 63 65 63 63 64 66
35 35 35 36 37 37 36 36 35 36 36 37 37 37 39 40 41 41 41 42 42 42 43 44 46 47 48 49 50 53 53 56 60 59 60 58 59 62 63 64 63 63 63
35 34 34 34 35 35 34 34 33 33 34 34 35 37 37 37 39 38 38 39 40 40 42 43 43 44 45 47 47 50 53 55 56 58 58 59 59 60 61 63 63 63 62
33 34 33 33 34 34 33 33 33 33 33 34 34 33 34 34 35 34 35 36 36 37 37 39 42 43 44 46 47 47 47 50 53 54 58 59 61 61 60 62 63 64 63
33 33 33 33 33 33 34 32 32 32 31 30 31 31 31 31 32 33 33 34 35 36 36 36 38 39 41 44 46 47 46 45 47 51 55 56 58 60 61 61 63 63 62
32 33 34 33 32 33 33 32 32 30 29 29 29 29 30 30 31 31 32 33 34 34 35 37 36 38 39 41 44 45 46 47 47 48 52 57 57 57 59 61 61 62 63
31 33 34 33 32 31 32 32 31 30 29 28 28 28 28 29 30 31 32 32 32 32 34 35 36 38 38 39 41 43 44 46 45 48 49 49 53 57 59 60 62 62 63
31 33 33 31 31 29 31 32 30 29 28 27 27 27 28 29 29 30 31 32 32 33 33 34 36 37 38 38 39 41 42 43 45 47 49 50 52 54 57 60 61 61 61

GFSSE_sfc_30mbdewp_147.txt.gz
Dewpoint
67 70 71 71 71 71 71 71 71 71 70 70 70 71 71 71 71 71 72 72 71 70 70 69 69 69 70 71 70 70 70 70 71 70 70 70 70 70 70 70 70 69 70
68 70 71 71 71 71 71 72 72 72 72 71 71 71 71 71 71 71 71 72 72 71 70 70 69 69 70 70 69 69 70 70 70 70 70 69 69 69 69 68 69 70 70
69 70 71 71 71 71 71 71 71 72 73 72 71 71 71 71 71 71 71 72 72 72 71 71 70 69 70 70 69 69 69 70 70 70 69 69 69 68 68 68 69 70 70
67 67 69 70 71 71 71 71 71 71 71 71 72 71 71 71 71 71 71 71 72 72 72 71 70 69 69 69 69 69 69 70 69 70 68 67 67 68 69 69 69 70 70
64 63 65 67 68 69 70 70 70 71 70 70 70 72 72 72 71 71 71 71 71 71 71 71 71 70 69 68 67 68 69 69 69 69 67 65 67 67 68 69 69 69 69
61 61 61 64 65 67 68 68 68 68 69 70 70 70 70 71 71 70 70 70 71 71 71 71 70 70 70 68 67 68 68 68 69 68 64 59 59 65 67 68 69 68 68
58 58 59 60 63 62 65 66 66 67 68 69 69 70 70 70 69 69 70 69 69 70 71 71 70 70 70 68 67 67 68 68 68 67 65 58 51 58 66 67 68 68 68
54 54 55 55 57 61 59 62 64 66 66 66 66 66 68 68 69 69 69 69 68 69 69 70 71 70 71 69 67 67 67 68 67 67 66 64 61 60 65 66 68 68 68
52 51 51 51 52 53 54 58 62 65 63 63 63 63 65 67 68 68 68 68 67 68 68 68 70 70 70 70 68 67 67 67 67 67 65 66 66 64 66 66 68 67 68
49 49 49 49 49 49 47 53 55 56 60 60 58 61 61 63 67 66 67 67 67 67 67 67 68 69 69 69 69 67 66 67 67 67 65 65 65 67 65 67 67 68 68
45 46 47 48 47 47 46 49 49 52 52 56 55 56 57 60 63 63 65 66 66 67 66 68 68 67 67 68 69 68 66 67 66 66 65 64 65 65 65 64 66 68 68
42 43 45 47 47 46 47 47 47 47 49 48 49 52 53 54 54 58 58 62 61 65 66 66 66 67 67 67 68 68 67 66 66 65 64 64 65 66 66 66 65 68 67
41 41 44 45 45 45 47 46 47 47 47 46 48 47 49 52 51 52 52 54 56 61 66 66 66 66 66 66 66 67 67 66 66 65 64 64 64 61 66 65 64 67 67
40 40 42 43 44 44 46 45 45 46 44 46 46 47 46 49 49 48 49 51 53 55 57 62 66 66 65 65 65 66 66 66 66 65 64 64 65 65 65 65 64 66 67
38 39 39 42 43 42 43 43 44 44 42 44 44 46 42 47 46 46 47 49 47 48 51 52 57 63 62 63 64 63 64 65 66 66 65 65 64 65 65 65 63 64 67
37 38 39 42 41 41 41 42 41 42 41 42 45 43 41 46 43 44 46 45 45 46 47 49 51 53 56 63 63 63 64 62 61 64 65 63 65 63 64 65 64 63 65
36 37 37 40 39 39 41 40 40 41 41 42 41 41 43 42 42 44 43 44 44 45 45 45 46 49 50 56 61 61 62 63 64 64 64 63 63 63 63 64 63 64 64
35 36 38 40 38 38 38 37 38 39 39 39 39 39 43 41 43 43 42 42 44 44 44 44 45 46 46 48 52 59 61 61 62 62 63 62 63 64 64 63 61 61 61
35 35 36 37 36 36 36 35 36 36 36 36 37 38 37 39 40 39 40 41 41 41 42 43 44 45 44 46 48 49 56 60 60 61 62 62 60 62 62 60 57 55 60
35 34 35 36 35 35 35 35 34 35 35 35 36 33 35 34 34 34 35 36 37 38 38 38 38 41 44 45 46 46 49 54 59 60 59 59 59 58 61 60 59 57 59
35 33 34 34 34 34 33 33 33 32 33 33 32 32 32 31 32 32 33 34 35 35 36 35 36 38 39 44 45 46 47 50 54 58 58 58 58 58 60 62 64 63 63
34 33 34 33 34 34 33 33 32 32 32 32 31 31 30 30 31 30 31 32 33 34 35 34 34 35 37 40 43 45 44 44 49 54 57 57 57 58 58 58 61 64 64
33 33 34 33 33 33 33 33 32 31 30 29 29 29 29 30 29 30 31 32 32 33 32 33 34 34 34 38 40 42 44 45 46 50 54 56 58 58 60 60 59 61 63
33 34 34 34 31 31 33 32 30 29 28 28 28 28 28 29 29 30 31 31 31 31 31 31 32 34 35 35 37 39 43 43 44 44 50 53 56 57 58 60 61 60 62
33 34 33 33 30 31 32 31 30 29 29 28 28 27 28 28 29 30 30 30 31 31 32 33 33 33 35 35 35 37 39 42 43 45 43 45 52 55 58 58 60 61 62
33 33 31 30 29 31 32 30 29 28 27 27 27 27 28 29 29 30 30 30 31 31 32 33 34 35 35 35 37 37 37 39 42 44 45 45 47 50 51 54 60 61 61

GFSSE_sfc_30mbdewp_153.txt.gz
Dewpoint
68 71 71 72 72 72 72 72 72 71 71 71 70 70 70 70 71 71 71 71 71 70 69 69 70 70 70 69 68 69 68 69 69 69 69 70 69 70 70 70 70 70 70
69 70 71 71 71 71 71 71 72 72 72 71 71 70 70 70 70 71 71 71 71 70 69 69 69 70 70 69 68 68 69 69 69 69 69 68 69 69 70 70 70 70 70
68 68 69 70 70 70 70 71 71 70 71 72 72 71 71 70 70 70 70 71 71 71 71 70 69 69 69 69 68 68 68 69 69 69 68 68 68 69 69 70 70 70 69
65 67 67 68 68 69 69 69 69 70 70 70 71 71 71 71 71 70 70 70 70 71 71 71 71 70 68 68 67 67 68 68 69 69 68 67 67 68 66 68 69 69 69
61 62 64 66 67 67 68 67 68 68 68 69 69 70 70 70 71 71 71 70 70 70 71 70 70 71 69 68 67 66 67 68 68 68 68 66 66 67 67 67 68 70 69
57 56 59 62 63 66 66 66 66 65 65 66 68 69 69 69 69 69 69 70 70 70 70 71 70 70 70 69 68 66 66 67 68 68 67 65 66 67 66 67 68 68 69
51 51 55 57 59 63 64 63 61 61 62 62 62 64 66 66 66 67 68 68 69 69 69 69 69 69 70 70 69 67 66 66 67 67 67 65 61 65 66 66 66 68 69
48 48 49 53 54 56 57 59 59 58 58 56 57 59 60 59 60 60 62 62 62 65 68 68 68 68 68 69 69 68 66 65 67 67 67 66 64 60 64 67 66 67 68
47 46 47 48 49 51 54 55 54 54 55 52 53 53 53 53 54 54 56 57 59 60 61 65 68 68 68 68 68 68 67 66 66 66 67 66 66 66 65 67 66 67 67
45 45 46 46 46 46 48 50 50 51 52 48 49 51 50 50 50 50 51 53 55 55 56 58 60 66 67 67 67 67 67 67 65 66 66 66 66 67 67 67 67 67 68
43 43 44 44 45 45 45 47 46 47 49 47 45 49 49 48 48 48 48 49 49 51 52 52 54 58 65 66 66 67 67 66 66 65 66 66 66 66 66 67 67 66 67
41 41 42 43 43 44 44 43 44 44 46 46 44 46 47 45 46 46 46 45 46 47 47 48 49 52 54 58 64 66 67 67 66 66 65 65 66 66 66 66 67 66 65
41 40 41 41 42 42 43 43 43 43 44 44 45 45 45 44 45 45 44 44 45 45 46 46 47 48 50 51 54 60 64 66 66 66 66 65 65 66 66 66 65 64 64
39 39 39 40 40 40 41 41 41 42 41 42 43 45 44 43 43 44 43 44 44 44 44 45 46 47 48 49 51 53 59 64 65 66 66 65 65 65 66 67 65 64 64
39 37 38 39 39 38 38 39 39 39 39 40 41 42 42 41 40 41 42 43 43 42 43 43 44 45 47 48 50 51 53 56 62 64 66 65 64 65 66 66 66 66 65
39 37 37 37 36 36 36 37 37 37 39 39 38 39 37 36 35 36 37 39 38 38 40 41 41 44 44 46 46 48 50 53 58 62 64 65 64 63 65 66 65 64 62
38 37 37 36 35 35 36 36 36 37 37 36 37 35 34 34 33 33 34 35 35 35 36 38 38 38 38 39 41 45 47 48 51 57 62 64 64 63 64 64 63 61 60
36 35 36 35 35 34 35 35 35 36 35 35 35 33 33 33 33 32 33 33 34 34 35 35 35 35 35 35 37 39 44 47 48 51 58 62 63 63 62 62 63 62 63
35 35 34 34 34 34 34 34 34 35 33 33 32 31 31 32 32 31 32 32 33 34 34 34 34 35 34 34 35 36 38 41 44 46 48 57 60 62 62 62 60 63 63
35 35 34 34 33 33 33 33 33 32 32 31 31 30 30 30 30 31 31 32 32 33 32 32 33 33 33 33 35 35 36 38 42 46 47 49 58 58 61 62 61 60 62
34 34 33 32 33 32 31 31 31 31 30 30 30 29 29 30 30 30 31 30 30 30 31 31 31 31 30 31 31 35 36 41 42 41 45 48 54 58 59 60 62 62 61
33 33 33 32 32 31 31 31 31 29 30 29 29 29 29 29 30 29 30 30 29 29 30 31 31 31 30 31 31 31 34 39 43 44 44 47 53 58 58 59 60 61 61
33 33 32 32 32 31 30 29 29 29 29 28 28 28 28 29 29 29 29 30 28 29 30 30 31 33 31 31 31 32 33 37 37 45 49 48 52 56 57 57 57 58 59
33 33 31 32 31 30 30 28 27 27 26 27 28 28 28 28 28 30 28 30 28 29 29 30 30 31 32 30 32 31 34 34 35 37 41 46 53 55 56 57 58 58 58
33 31 30 31 31 30 29 28 27 27 27 27 28 27 27 28 28 28 28 29 28 29 30 31 31 31 33 32 32 33 33 34 35 36 36 37 42 47 48 53 52 50 54
33 30 30 30 30 29 28 28 27 26 26 26 26 26 27 27 28 28 27 27 26 28 29 30 32 32 32 32 33 34 34 34 35 36 37 38 40 44 43 48 48 47 55

GFSSE_sfc_30mbdewp_159.txt.gz
Dewpoint
67 69 70 71 71 71 71 71 71 71 71 71 70 70 71 71 71 70 70 70 70 70 69 70 70 70 70 68 68 68 68 68 68 68 69 70 70 69 70 71 70 66 69
67 68 69 69 69 69 70 70 70 71 71 71 71 71 70 70 71 71 70 70 70 69 69 69 70 70 69 68 67 68 68 68 69 69 69 69 68 69 70 70 69 66 69
66 67 67 68 68 68 69 69 69 69 69 69 70 70 70 70 70 70 70 70 70 70 70 69 69 69 69 68 67 67 67 68 68 68 69 66 66 68 70 70 69 70 69
63 64 67 68 68 67 67 67 68 68 68 69 69 69 69 69 70 70 70 70 70 69 69 69 69 68 69 68 67 66 67 67 68 68 66 66 66 68 68 68 69 69 69
57 61 66 66 65 64 64 64 64 65 66 66 66 67 67 67 66 66 66 67 68 69 69 68 68 68 69 69 68 67 66 67 67 67 66 66 66 66 67 67 67 68 69
54 59 62 64 63 62 61 61 60 61 62 62 62 62 62 63 63 63 63 63 64 65 66 68 69 68 68 69 69 69 67 66 66 63 65 66 66 65 67 67 67 67 67
52 56 59 60 59 59 59 57 57 57 56 57 56 57 57 57 58 58 58 59 60 60 61 62 64 65 67 68 68 69 68 67 65 63 65 65 66 66 67 68 67 67 67
49 51 53 57 56 57 57 54 53 54 54 53 52 52 52 53 53 53 53 54 54 55 56 56 58 60 62 65 66 67 68 68 66 64 63 64 66 66 66 67 67 67 67
48 48 49 50 53 54 54 52 51 51 52 50 49 49 49 49 50 50 49 50 51 50 51 51 52 53 55 57 58 60 64 66 67 65 64 63 66 67 66 66 66 67 67
46 47 47 46 46 50 51 50 50 50 48 48 47 47 47 46 46 47 46 48 48 48 48 48 48 48 49 50 52 54 56 64 66 65 65 64 66 67 67 67 66 66 66
43 45 46 45 45 45 46 46 47 47 46 44 43 45 43 44 43 42 45 45 45 45 44 45 45 45 46 45 48 50 53 60 63 65 65 64 66 66 66 68 68 67 67
41 42 44 45 44 43 41 42 42 42 42 42 42 41 41 41 41 40 41 42 41 41 41 41 42 41 40 40 41 44 47 50 55 62 65 66 66 66 66 67 68 68 67
40 41 42 43 44 42 41 40 39 39 40 39 39 38 38 37 37 36 37 38 37 36 36 36 38 38 41 41 39 41 42 44 48 54 59 63 65 66 66 67 67 67 67
38 39 40 41 40 40 39 38 39 38 37 36 36 36 35 33 34 34 34 34 34 34 34 35 36 37 38 39 39 39 40 41 41 45 51 56 59 63 65 66 67 67 67
37 38 39 38 38 38 39 38 38 36 35 34 34 35 34 32 33 33 33 32 33 33 33 34 34 34 35 36 37 38 38 38 40 41 43 48 51 55 62 65 65 67 67
37 37 38 37 37 38 38 38 37 35 34 32 32 33 34 32 33 32 32 32 32 32 33 33 33 33 34 34 35 35 36 37 37 39 40 42 48 51 55 62 65 66 67
36 36 37 37 37 37 36 35 35 34 32 31 31 33 33 33 32 32 32 32 31 32 32 31 32 32 32 32 32 32 33 34 35 38 39 41 42 46 54 58 63 66 66
35 35 35 35 36 36 35 33 32 32 31 30 30 31 32 33 33 31 31 31 32 30 30 30 30 31 31 31 31 31 32 33 33 35 37 38 38 40 44 54 62 64 64
35 34 34 36 35 35 34 32 31 31 29 29 29 30 31 32 32 31 31 31 30 29 29 30 30 31 30 31 31 32 32 33 33 33 35 36 37 38 39 44 58 62 63
34 34 34 34 35 35 33 32 30 29 29 29 28 29 30 31 31 30 30 31 29 28 29 30 30 30 30 31 31 30 31 32 34 35 37 38 38 38 39 40 48 60 61
34 34 33 33 34 33 32 31 30 27 27 27 28 29 30 30 30 29 29 30 29 29 29 29 29 29 29 30 30 30 31 33 36 36 39 43 44 43 41 41 45 56 60
34 33 33 32 32 32 30 30 29 28 27 27 27 28 29 30 30 28 29 29 29 28 29 29 29 29 29 31 31 30 28 30 32 31 35 39 40 46 43 40 43 49 58
34 34 33 32 31 30 30 29 28 28 26 25 26 26 28 29 30 29 29 28 28 28 28 28 28 30 29 30 31 31 28 27 30 30 31 35 39 38 49 46 47 50 55
34 34 33 32 30 29 28 25 22 18 18 25 26 26 27 28 29 28 28 28 27 27 27 27 28 29 28 28 30 32 32 32 30 29 30 32 36 38 45 49 53 53 55
34 33 33 31 30 29 27 25 22 22 24 25 25 24 25 27 28 27 27 27 27 26 27 27 27 27 28 28 28 28 29 31 33 32 30 32 37 41 44 49 51 51 49
33 32 32 30 29 28 26 25 24 23 22 20 20 21 23 26 26 24 24 26 26 26 26 26 27 27 26 27 27 28 28 29 30 32 31 33 34 38 40 48 49 48 46